This demonstration page uses our WeatherBlox Daily Observations layout. Learn more.

Left ArrowRight Arrow

Hourly Observations for May 23, 2015

Temp ( °F °C ) Dew Point ( °F °C ) Humidity (%) Winds ( mph kmh ) Pressure ( in mb ) Visibility ( mi km ) Precip ( " mm )
12:53 am 00:53 Cloudy 54 12.2 50 10 87 87 SE 9 15 30.15 1021 10 16 0.00 0.00
1:53 am 01:53 Cloudy 54 12.2 50 10 87 87 SSE 10 17 30.14 1021 10 16 0.00 0.00
2:53 am 02:53 Cloudy 54 12.2 50 10 87 87 SSE 9 15 30.14 1021 10 16 0.00 0.00
3:05 am 03:05 Cloudy 54 12.2 50 10 87 87 SSE 12 19 30.12 1020 10 16 0.00 0.00
3:32 am 03:32 Cloudy 54 12 50 10 88 88 SSE 10 17 30.12 1020 10 16 0.00 0.00
3:44 am 03:44 Cloudy 54 12 50 10 88 88 SSE 10 17 30.12 1020 10 16 0.00 0.00
3:53 am 03:53 Cloudy with Light Rain 54 12.2 50 10 87 87 SSE 9 15 30.13 1020 8 13 0.00 0.03
4:53 am 04:53 Cloudy 53 11.7 50 10 89 89 SE 8 13 30.13 1020 10 16 0.00 0.03
5:53 am 05:53 Cloudy 53 11.7 50 10 89 89 SE 9 15 30.14 1021 10 16 0.00 0.00
6:53 am 06:53 Cloudy 53 11.7 51 10.6 93 93 SE 8 13 30.13 1020 9 14 0.00 0.00
7:07 am 07:07 Cloudy 54 12 52 11 94 94 SSE 10 17 30.09 1019 8 13 0.00 0.00
7:53 am 07:53 Cloudy 53 11.7 51 10.6 93 93 SSE 15 24 30.11 1020 9 14 0.00 0.00
8:53 am 08:53 Cloudy 53 11.7 52 11.1 96 96 SSE 12 19 30.12 1020 7 11 0.00 0.00
9:53 am 09:53 Cloudy 54 12.2 52 11.1 93 93 SSE 10 17 30.14 1021 10 16 0.00 0.00
10:53 am 10:53 Cloudy 55 12.8 52 11.1 90 90 SE 10 17 30.12 1020 10 16 0.00 0.00
11:53 am 11:53 Cloudy 57 13.9 53 11.7 87 87 SSE 7 11 30.11 1020 10 16 0.00 0.00
12:10 pm 12:10 Cloudy 57 14 54 12 88 88 SSE 9 15 30.09 1019 10 16 0.00 0.00
12:50 pm 12:50 Cloudy with Rain 55 13 54 12 94 94 S 7 11 30.12 1020 2 3 0.00 0.00
12:53 pm 12:53 Cloudy with Light Rain 56 13.3 55 12.8 97 97 S 8 13 30.13 1020 2 3 0.03 0.76
1:04 pm 13:04 Cloudy with Light Rain 57 14 55 13 94 94 S 10 17 30.09 1019 5 8 0.00 0.00
1:14 pm 13:14 Cloudy 57 14 55 13 94 94 SSE 8 13 30.09 1019 10 16 0.00 0.00
1:53 pm 13:53 Cloudy 59 15 56 13.3 90 90 SSE 9 15 30.10 1019 10 16 0.00 0.03
2:06 pm 14:06 Mostly Cloudy 58 14.4 55 12.8 90 90 SE 10 17 30.09 1019 10 16 0.00 0.00
2:50 pm 14:50 Cloudy 59 15 55 13 88 88 SE 14 22 30.03 1017 10 16 0.00 0.00
2:53 pm 14:53 Cloudy 59 15 55 12.8 87 87 SE 13 20 30.05 1018 10 16 0.00 0.00
3:14 pm 15:14 Cloudy 59 15 55 13 88 88 SE 13 20 30.03 1017 10 16 0.00 0.00
3:53 pm 15:53 Cloudy 60 15.6 56 13.3 86 86 ESE 12 19 30.04 1017 10 16 0.00 0.03
4:53 pm 16:53 Cloudy 59 15 56 13.3 90 90 E 14 22 30.01 1016 10 16 0.00 0.03
5:37 pm 17:37 Cloudy 61 16 57 14 88 88 E 14 22 29.97 1015 10 16 0.00 0.00
5:53 pm 17:53 Cloudy 60 15.6 56 13.3 86 86 E 14 22 29.97 1015 10 16 0.00 0.00
6:45 pm 18:45 Cloudy 60 15.6 56 13.3 86 86 E 13 20 29.97 1015 10 16 0.00 0.00
6:53 pm 18:53 Cloudy 60 15.6 56 13.3 86 86 ESE 14 22 29.98 1015 10 16 0.00 0.00
7:08 pm 19:08 Cloudy 59 15 55 13 88 88 E 14 22 29.94 1014 10 16 0.00 0.00
7:41 pm 19:41 Cloudy 60 15.6 56 13.3 86 86 E 10 17 29.94 1014 10 16 0.00 0.00
7:53 pm 19:53 Cloudy 59 15 56 13.3 90 90 E 10 17 29.97 1015 10 16 0.00 0.00
8:45 pm 20:45 Cloudy 59 15 55 13 88 88 E 12 19 29.94 1014 10 16 0.00 0.00
8:53 pm 20:53 Cloudy 59 15 56 13.3 90 90 E 12 19 29.97 1015 10 16 0.00 0.00
9:53 pm 21:53 Cloudy 59 15 57 13.9 93 93 E 10 17 29.98 1015 10 16 0.00 0.00
10:53 pm 22:53 Cloudy 59 15 57 13.9 93 93 E 14 22 29.96 1014 10 16 0.00 0.00
11:53 pm 23:53 Cloudy 59 15 57 13.9 93 93 E 10 17 29.96 1015 10 16 0.00 0.00

Powered by AerisWeather